Wind_Speed
39 42 45 48 50 52 53 54 55 56 57 58 58 58 58 59 59 59 59 60 60 61 61 60 59 60 60 60 62 64 66 68 69 69 71 71 69 66 62 58 54 51 49
43 46 48 50 52 54 55 56 57 58 59 60 60 59 59 59 59 59 59 59 59 60 60 59 59 59 59 60 62 64 66 69 69 67 64 61 57 52 48 45 43 41 39
48 50 52 53 54 55 57 58 59 59 60 60 59 58 58 59 59 59 58 59 60 60 59 58 58 57 58 60 62 64 65 65 62 59 52 48 44 41 38 36 34 34 33
53 54 54 54 54 55 57 57 57 58 58 57 57 57 57 57 58 58 58 59 59 58 57 57 57 58 59 60 60 60 59 56 52 47 41 37 34 32 30 28 28 28 27
55 54 54 54 54 54 55 55 55 56 56 56 56 55 56 57 57 58 58 58 57 56 55 55 56 57 57 57 56 53 50 45 41 36 32 28 26 25 25 24 22 22 22
55 55 54 53 52 52 53 53 54 53 53 54 54 55 56 57 57 57 57 55 53 53 53 53 54 54 53 51 48 44 39 34 28 26 23 21 20 20 19 19 18 18 18
54 53 51 50 49 50 50 51 51 51 52 53 54 55 56 55 54 53 51 50 50 50 50 50 49 48 45 41 37 33 28 24 21 19 17 16 16 16 16 17 17 17 17
50 48 47 46 46 47 47 48 49 51 52 53 53 53 52 50 49 48 48 48 47 47 46 44 41 38 35 30 27 23 20 18 16 14 14 13 14 14 15 15 16 16 16
44 43 42 43 44 45 47 48 49 50 50 50 49 48 46 45 45 44 44 43 42 41 39 36 33 29 26 22 18 16 14 13 12 12 11 12 12 13 15 15 16 15 14
39 39 40 41 42 44 45 46 47 47 46 45 44 43 43 42 41 40 38 38 37 35 33 29 25 22 18 14 11 10 10 9 9 10 11 12 13 14 15 15 15 14 13
37 37 39 40 42 43 43 43 42 42 42 42 41 40 39 38 36 34 33 32 30 28 25 22 18 14 10 8 7 7 7 7 7 9 11 12 14 15 16 15 15 14 13
35 36 37 38 39 39 40 40 40 40 39 39 37 36 34 32 31 29 27 25 23 20 17 14 10 7 5 5 5 5 5 6 8 9 11 12 14 16 17 16 15 15 15
33 34 35 36 38 38 38 38 37 36 35 33 32 30 29 27 25 24 22 19 16 13 10 7 5 3 3 4 4 5 6 7 8 10 11 13 15 17 18 18 17 17 16
33 34 35 36 37 37 36 35 33 31 29 27 26 24 23 22 20 18 16 12 9 7 4 2 1 2 3 4 5 6 7 8 9 11 12 14 15 17 18 18 18 18 18
32 33 34 34 34 33 31 30 28 26 23 22 20 19 18 17 15 13 10 7 4 1 1 2 3 4 4 5 6 6 7 8 9 11 12 14 16 17 17 17 18 18 19
32 32 32 31 30 29 27 24 22 20 19 17 16 15 14 12 10 7 4 1 1 2 4 5 5 5 6 6 6 7 8 9 10 11 12 14 15 16 17 17 18 18 19
31 31 30 28 26 24 21 19 17 16 15 14 13 11 10 7 4 1 1 3 5 6 7 7 7 7 7 8 8 9 9 10 11 12 13 14 15 16 17 17 18 18 19
30 29 27 25 22 19 16 15 13 11 10 10 9 7 5 2 1 4 5 7 8 9 9 8 8 8 9 10 10 10 10 11 12 13 14 15 16 16 17 17 17 18 18
27 25 23 20 17 14 12 10 9 8 7 6 6 4 3 4 6 7 9 10 11 11 10 9 9 10 11 11 12 12 12 12 13 14 15 16 16 16 17 17 17 18 18
24 22 19 15 12 10 9 8 7 7 6 5 5 5 6 7 9 11 12 12 12 12 11 11 11 11 12 13 13 13 13 13 14 15 15 16 17 17 17 18 18 18 18
21 18 15 12 10 8 8 8 7 8 8 8 8 9 9 11 12 13 13 14 13 12 12 12 12 13 13 14 13 13 13 14 14 15 16 17 18 18 19 19 19 19 19
19 16 13 11 10 9 9 9 9 10 10 11 11 11 12 14 14 14 14 14 13 13 13 13 14 14 14 14 14 14 14 15 15 16 17 17 18 19 20 21 21 21 20
19 15 13 12 11 11 11 10 10 11 12 13 13 13 14 15 15 15 14 13 13 13 14 14 14 15 15 15 15 14 14 15 15 16 17 18 18 19 20 21 21 22 22
19 16 15 14 13 13 12 12 12 13 14 14 15 15 15 15 15 14 14 13 13 14 14 14 14 15 14 14 14 14 14 14 15 16 17 18 18 19 19 20 21 21 22
20 18 18 17 16 15 15 15 15 16 16 16 16 16 16 15 15 14 13 13 13 14 14 14 14 14 14 14 13 13 13 14 14 15 16 17 17 18 18 19 19 19 20
23 21 21 20 19 19 19 19 18 18 18 17 17 16 16 15 14 14 13 13 13 13 14 14 14 14 14 13 13 13 13 13 13 14 15 15 15 16 16 16 17 17 17
Wind_Direction
285 288 289 289 289 289 288 288 288 288 289 290 290 291 292 292 293 293 294 295 296 298 299 299 298 298 296 294 293 293 292 292 292 292 291 291 291 291 290 288 286 283 280
285 287 288 288 287 287 287 287 287 287 288 289 290 291 292 292 293 295 296 298 298 299 300 299 298 297 296 294 294 294 294 294 294 294 295 295 294 292 290 289 287 285 281
288 288 288 287 287 286 286 286 287 287 288 288 289 290 291 293 294 296 298 298 299 300 301 300 298 297 296 295 295 296 296 297 298 299 299 297 295 293 292 291 289 287 283
290 289 288 288 287 286 287 287 287 287 287 288 290 291 293 295 296 297 298 299 300 301 300 298 297 297 297 297 297 298 298 300 301 302 301 299 297 295 294 293 292 290 288
290 290 289 289 288 287 287 286 287 286 286 288 290 292 293 296 297 298 299 300 300 299 299 298 298 298 298 298 299 299 301 303 304 304 303 302 300 299 299 299 297 294 292
291 292 291 289 289 288 287 286 286 287 289 290 292 295 296 297 298 299 299 298 298 298 299 299 299 299 300 300 301 303 304 306 306 307 307 307 307 307 308 308 306 302 298
291 291 291 290 289 288 287 287 287 288 290 292 295 296 296 296 298 299 299 298 298 299 299 300 300 300 301 302 304 306 308 309 311 312 313 314 315 316 317 316 315 311 306
291 291 289 288 287 287 287 288 289 291 293 294 295 296 297 297 298 298 299 299 299 300 300 300 301 302 303 305 306 307 309 312 316 319 321 322 323 324 325 326 324 322 318
291 291 290 289 288 288 289 290 292 294 295 296 297 297 298 298 299 299 300 299 300 300 300 301 303 304 306 307 307 308 312 317 322 328 332 334 336 338 337 336 334 333 331
292 292 292 291 290 291 292 293 294 296 297 298 299 298 299 299 300 300 300 300 300 301 302 304 306 307 308 309 311 315 322 329 336 342 347 349 349 349 349 348 346 346 344
294 293 293 293 293 295 296 297 298 299 299 300 300 299 299 299 299 298 299 299 300 301 303 306 308 310 313 318 323 330 339 348 354 358 359 0 1 3 3 1 2 3 3
296 296 297 298 298 299 299 300 300 300 300 300 299 298 298 297 298 298 300 300 300 301 303 306 310 315 326 336 343 353 4 10 12 12 14 15 14 13 13 14 16 17 16
300 301 302 302 303 303 303 303 302 302 301 300 299 299 298 299 299 300 301 300 299 299 302 306 314 331 357 12 23 28 29 28 27 27 27 25 22 21 22 24 25 24 25
306 306 306 306 306 306 305 305 304 303 303 302 301 301 301 301 302 302 302 299 298 297 303 317 9 45 45 45 47 44 40 40 40 37 33 30 27 27 28 30 31 31 33
310 310 310 309 309 308 308 307 306 305 304 303 303 303 304 304 304 304 302 302 299 303 43 83 82 74 63 58 55 52 51 52 49 44 40 35 33 32 32 32 34 36 36
316 315 315 314 312 312 311 310 308 307 306 305 305 306 306 306 306 303 301 293 114 101 99 95 87 77 71 64 64 64 63 61 54 48 43 38 34 34 35 36 36 38 39
321 320 318 316 315 314 313 313 313 311 310 311 312 313 314 313 309 298 138 124 115 107 100 93 86 80 74 73 75 75 72 64 56 50 44 38 36 37 39 40 42 43 43
325 323 322 320 320 319 320 321 322 321 320 322 324 328 333 343 97 123 119 116 110 104 96 88 84 82 80 81 83 82 75 66 59 52 45 40 40 40 41 43 45 47 48
330 328 328 328 328 329 332 335 338 339 340 343 350 6 42 93 111 115 114 111 105 100 91 85 84 85 85 87 88 83 75 67 60 51 45 43 43 44 45 46 48 50 52
337 337 336 339 341 346 352 356 1 6 14 28 47 67 88 102 109 112 111 106 102 94 87 85 86 89 91 91 90 84 75 67 60 52 47 46 47 48 49 49 51 53 54
348 347 349 356 4 10 19 27 34 41 52 63 72 82 93 103 109 110 108 104 97 88 84 85 87 91 93 92 90 85 76 69 61 55 52 51 51 52 53 54 54 55 57
1 3 9 19 29 39 46 53 56 61 68 75 80 87 96 104 108 108 106 100 92 86 84 85 88 92 93 93 91 86 78 70 64 59 57 56 56 57 59 59 59 58 59
13 20 28 38 49 55 59 63 66 72 77 81 85 91 98 105 107 107 104 97 91 87 85 86 90 93 93 93 91 85 78 71 65 63 62 62 63 63 63 63 63 62 62
27 36 45 53 59 63 66 71 76 80 83 85 88 92 98 103 106 105 100 95 91 88 87 89 92 93 94 94 91 85 78 74 69 67 65 66 67 67 66 66 66 65 64
39 49 56 61 64 68 72 77 82 85 85 87 89 92 97 100 102 102 99 95 90 88 88 90 93 94 94 93 91 86 82 78 74 71 68 66 66 65 66 66 66 65 64
50 57 61 65 68 72 75 80 84 85 85 87 89 92 95 97 98 98 97 95 92 90 90 90 92 95 95 93 91 88 84 80 76 73 69 66 64 64 64 64 64 64 63
Height
5774 5771 5768 5765 5761 5757 5753 5749 5745 5741 5737 5732 5728 5723 5719 5714 5709 5703 5698 5693 5688 5682 5676 5670 5664 5658 5651 5644 5638 5630 5623 5615 5610 5605 5593 5583 5575 5567 5560 5555 5550 5547 5544
5764 5761 5757 5753 5749 5745 5741 5737 5732 5728 5723 5718 5714 5709 5704 5699 5694 5689 5684 5678 5673 5667 5661 5655 5648 5642 5635 5628 5621 5613 5605 5597 5589 5584 5575 5565 5557 5550 5545 5541 5537 5533 5530
5753 5750 5745 5741 5736 5732 5728 5723 5718 5714 5709 5704 5700 5695 5690 5685 5679 5674 5669 5664 5658 5652 5646 5640 5633 5626 5620 5612 5605 5597 5588 5579 5571 5565 5559 5551 5544 5538 5534 5530 5526 5522 5519
5740 5736 5732 5727 5723 5718 5714 5709 5704 5700 5695 5690 5686 5681 5675 5670 5665 5660 5655 5649 5643 5637 5631 5625 5618 5611 5604 5597 5589 5581 5573 5565 5557 5551 5545 5539 5534 5529 5525 5521 5518 5514 5511
5726 5722 5717 5713 5708 5704 5699 5694 5690 5685 5681 5676 5671 5666 5662 5657 5652 5646 5640 5635 5629 5623 5616 5610 5603 5596 5589 5582 5575 5567 5560 5554 5547 5541 5536 5531 5527 5522 5518 5515 5511 5508 5505
5711 5707 5702 5698 5693 5689 5685 5680 5675 5671 5666 5662 5657 5653 5648 5643 5637 5632 5626 5621 5615 5609 5603 5596 5589 5582 5575 5568 5562 5556 5550 5545 5540 5535 5530 5526 5522 5518 5514 5510 5506 5503 5500
5697 5692 5688 5684 5679 5675 5671 5666 5662 5658 5653 5649 5644 5639 5634 5629 5624 5618 5612 5607 5601 5596 5590 5583 5576 5570 5564 5559 5553 5548 5543 5539 5535 5531 5527 5523 5519 5515 5511 5507 5503 5499 5496
5683 5679 5675 5670 5666 5662 5658 5653 5649 5645 5640 5636 5631 5626 5621 5616 5610 5605 5600 5594 5588 5583 5578 5572 5566 5560 5556 5551 5547 5543 5539 5535 5532 5528 5524 5520 5516 5513 5509 5505 5501 5496 5492
5671 5666 5662 5658 5654 5650 5646 5642 5637 5633 5628 5623 5618 5613 5608 5603 5598 5593 5587 5582 5577 5572 5567 5562 5558 5553 5549 5546 5542 5539 5536 5533 5530 5526 5523 5519 5515 5511 5507 5503 5498 5494 5490
5660 5655 5651 5647 5643 5639 5634 5629 5625 5620 5615 5610 5605 5601 5596 5591 5587 5582 5577 5572 5567 5562 5559 5555 5552 5548 5545 5542 5539 5537 5535 5532 5529 5526 5522 5519 5515 5511 5506 5502 5497 5493 5489
5649 5645 5641 5636 5632 5627 5623 5618 5613 5608 5603 5599 5594 5590 5585 5581 5576 5572 5568 5564 5560 5556 5553 5550 5547 5545 5542 5540 5538 5536 5534 5531 5529 5526 5523 5519 5515 5511 5506 5502 5497 5493 5489
5640 5635 5631 5626 5621 5616 5611 5607 5602 5597 5592 5587 5583 5579 5575 5571 5567 5564 5560 5557 5554 5551 5549 5547 5545 5543 5541 5539 5538 5536 5534 5532 5529 5526 5523 5520 5516 5512 5507 5503 5499 5494 5490
5631 5626 5621 5616 5611 5606 5601 5596 5591 5586 5582 5578 5573 5570 5566 5563 5560 5557 5554 5552 5550 5548 5546 5544 5543 5542 5540 5539 5538 5536 5534 5532 5530 5527 5525 5521 5518 5514 5509 5505 5501 5497 5492
5622 5617 5612 5607 5601 5596 5591 5586 5581 5577 5573 5569 5566 5562 5559 5557 5554 5552 5550 5548 5547 5545 5544 5543 5543 5542 5541 5539 5538 5537 5535 5533 5531 5529 5526 5523 5520 5516 5512 5508 5504 5500 5496
5614 5609 5603 5597 5592 5587 5582 5577 5573 5569 5566 5563 5560 5557 5554 5552 5550 5548 5546 5545 5545 5544 5544 5543 5543 5542 5541 5540 5539 5538 5537 5535 5533 5531 5529 5526 5523 5519 5515 5511 5507 5503 5499
5606 5600 5595 5589 5584 5579 5575 5570 5566 5563 5560 5558 5555 5553 5550 5548 5547 5545 5545 5544 5544 5544 5544 5544 5544 5543 5542 5541 5540 5540 5538 5537 5536 5534 5532 5529 5526 5522 5519 5515 5511 5507 5504
5599 5593 5587 5582 5577 5573 5568 5565 5562 5559 5556 5554 5552 5549 5548 5546 5545 5544 5544 5544 5545 5545 5545 5545 5545 5544 5543 5543 5542 5541 5541 5540 5538 5537 5534 5532 5529 5526 5523 5519 5516 5512 5509
5592 5586 5581 5575 5571 5567 5564 5561 5558 5556 5554 5551 5549 5548 5546 5545 5545 5545 5545 5546 5546 5547 5547 5547 5546 5546 5545 5545 5544 5544 5544 5543 5541 5540 5538 5535 5532 5529 5526 5524 5520 5517 5514
5586 5580 5575 5571 5567 5563 5561 5558 5556 5554 5552 5550 5549 5547 5546 5546 5546 5546 5547 5548 5548 5549 5549 5549 5548 5548 5548 5547 5547 5547 5547 5546 5545 5543 5542 5539 5536 5534 5531 5528 5525 5522 5519
5582 5576 5571 5568 5564 5562 5559 5557 5555 5554 5552 5550 5549 5548 5548 5548 5548 5549 5549 5550 5551 5552 5551 5551 5551 5551 5550 5551 5551 5551 5550 5550 5549 5547 5545 5543 5541 5538 5535 5533 5530 5527 5525
5579 5574 5569 5566 5563 5561 5559 5557 5556 5554 5553 5552 5551 5550 5550 5550 5551 5552 5553 5554 5554 5555 5555 5554 5554 5554 5554 5554 5554 5554 5554 5554 5553 5551 5549 5548 5545 5543 5540 5538 5535 5533 5531
5577 5573 5569 5566 5564 5562 5560 5559 5558 5556 5555 5555 5554 5554 5553 5554 5555 5556 5557 5558 5558 5558 5558 5558 5557 5558 5558 5558 5558 5558 5558 5558 5557 5555 5554 5552 5550 5548 5546 5543 5541 5539 5537
5577 5573 5570 5567 5565 5564 5562 5561 5560 5559 5559 5558 5558 5558 5558 5558 5559 5560 5561 5562 5562 5562 5562 5561 5561 5562 5562 5562 5562 5563 5563 5562 5561 5560 5559 5557 5555 5554 5551 5549 5547 5545 5543
5579 5575 5572 5570 5568 5567 5566 5565 5564 5563 5563 5563 5562 5562 5563 5563 5564 5565 5566 5566 5566 5566 5566 5566 5566 5566 5566 5566 5567 5567 5567 5566 5566 5565 5563 5562 5561 5559 5557 5556 5554 5552 5550
5582 5578 5576 5574 5572 5571 5570 5569 5568 5568 5568 5568 5568 5568 5568 5568 5569 5570 5570 5570 5570 5570 5570 5570 5570 5570 5570 5571 5571 5571 5571 5571 5570 5569 5568 5567 5566 5564 5563 5561 5560 5558 5556
5587 5584 5581 5579 5578 5576 5575 5574 5574 5574 5573 5573 5573 5573 5573 5574 5574 5574 5574 5574 5575 5575 5574 5574 5574 5574 5575 5575 5575 5575 5575 5575 5574 5574 5573 5572 5571 5569 5568 5566 5565 5563 5562